When you browse on this site, cookies collect data to enhance your experience and personalize the content and advertising you see.
Visit our Privacy Policy to learn more. By continuing to use the site, you agree to this use of cookies and data.
  • In Hungary
  • List of Countries
  • For 7 days
  • Water Temperature
  • Satellite Maps
  • Weather Map
  • News
  • Weather Widgets
  • user-avatar
    Login

    Hourly Weather Ust-Kulom

    Today, 21 November, Wednesday

    Time Temperature Precipitation Wind Pressure Humidity
    00:00 -5°C° 0.1 mm 3 mps 739 mmHg 89%
    01:00 -5°C° 0.1 mm 3 mps 739 mmHg 89%
    02:00 -4°C° 0.1 mm 3 mps 738 mmHg 90%
    03:00 -4°C° 0.1 mm 3 mps 738 mmHg 90%
    04:00 -4°C° 0 mm 4 mps 737 mmHg 90%
    05:00 -4°C° 0.3 mm 4 mps 737 mmHg 89%
    06:00 -4°C° 0.3 mm 4 mps 737 mmHg 89%
    07:00 -3°C° 0.3 mm 4 mps 737 mmHg 88%
    08:00 -4°C° 0.3 mm 4 mps 737 mmHg 87%
    09:00 -4°C° 0.3 mm 4 mps 737 mmHg 87%
    10:00 -7°C° 0 mm 4 mps 738 mmHg 86%
    11:00 -7°C° 0.4 mm 4 mps 738 mmHg 84%
    12:00 -7°C° 0.4 mm 4 mps 738 mmHg 81%
    13:00 -8°C° 0.4 mm 4 mps 739 mmHg 79%
    14:00 -8°C° 0 mm 3 mps 739 mmHg 82%
    15:00 -9°C° 0 mm 3 mps 739 mmHg 84%
    16:00 -9°C° 0 mm 2 mps 739 mmHg 87%
    17:00 -9°C° 0 mm 2 mps 739 mmHg 88%
    18:00 -9°C° 0 mm 2 mps 739 mmHg 88%
    19:00 -9°C° 0 mm 2 mps 739 mmHg 89%
    20:00 -10°C° 0 mm 2 mps 739 mmHg 90%
    21:00 -12°C° 0 mm 2 mps 739 mmHg 91%
    22:00 -12°C° 0 mm 2 mps 739 mmHg 92%
    23:00 -13°C° 0 mm 2 mps 739 mmHg 93%

    Tomorrow, 22 November, Thursday

    Time Temperature Precipitation Wind Pressure Humidity
    00:00 -13°C° 0 mm 2 mps 739 mmHg 94%
    01:00 -14°C° 0 mm 2 mps 738 mmHg 95%
    02:00 -12°C° 0 mm 1 mps 738 mmHg 96%
    03:00 -12°C° 0 mm 1 mps 738 mmHg 96%
    04:00 -12°C° 0 mm 1 mps 738 mmHg 97%
    05:00 -12°C° 0 mm 1 mps 737 mmHg 97%
    06:00 -12°C° 0 mm 1 mps 737 mmHg 97%
    07:00 -12°C° 0 mm 1 mps 736 mmHg 97%
    08:00 -12°C° 0 mm 1 mps 736 mmHg 97%
    09:00 -12°C° 0 mm 1 mps 736 mmHg 97%
    10:00 -12°C° 0 mm 1 mps 735 mmHg 96%
    11:00 -11°C° 0 mm 1 mps 735 mmHg 95%
    12:00 -11°C° 0 mm 1 mps 734 mmHg 94%
    13:00 -10°C° 0 mm 1 mps 734 mmHg 92%
    14:00 -11°C° 0 mm 1 mps 734 mmHg 93%
    15:00 -12°C° 0 mm 1 mps 734 mmHg 95%
    16:00 -12°C° 0 mm 1 mps 734 mmHg 96%
    17:00 -13°C° 0 mm 1 mps 734 mmHg 96%
    18:00 -13°C° 0 mm 1 mps 734 mmHg 96%
    19:00 -13°C° 0 mm 1 mps 734 mmHg 96%
    20:00 -14°C° 0 mm 1 mps 734 mmHg 95%
    21:00 -14°C° 0 mm 1 mps 734 mmHg 95%
    22:00 -14°C° 0 mm 1 mps 735 mmHg 95%
    23:00 -14°C° 0 mm 1 mps 735 mmHg 95%

    Day after tomorrow, 23 November, Friday

    Time Temperature Precipitation Wind Pressure Humidity
    00:00 -14°C° 0 mm 1 mps 736 mmHg 95%
    01:00 -13°C° 0 mm 0 mps 736 mmHg 94%
    02:00 -13°C° 0.1 mm 1 mps 737 mmHg 95%
    03:00 -12°C° 0.1 mm 1 mps 738 mmHg 95%
    04:00 -12°C° 0.1 mm 1 mps 738 mmHg 95%
    05:00 -12°C° 0 mm 1 mps 739 mmHg 95%
    06:00 -14°C° 0 mm 2 mps 739 mmHg 95%
    07:00 -14°C° 0 mm 2 mps 740 mmHg 95%
    08:00 -15°C° 0 mm 2 mps 740 mmHg 96%
    09:00 -15°C° 0 mm 2 mps 741 mmHg 96%
    10:00 -16°C° 0 mm 2 mps 741 mmHg 96%
    11:00 -13°C° 0 mm 1 mps 741 mmHg 95%
    12:00 -12°C° 0 mm 1 mps 742 mmHg 93%
    13:00 -12°C° 0 mm 1 mps 742 mmHg 91%
    14:00 -12°C° 0 mm 1 mps 742 mmHg 93%
    15:00 -12°C° 0 mm 1 mps 742 mmHg 94%
    16:00 -12°C° 0 mm 1 mps 742 mmHg 96%
    17:00 -12°C° 0.1 mm 1 mps 742 mmHg 95%
    18:00 -11°C° 0.1 mm 1 mps 742 mmHg 95%
    19:00 -11°C° 0.1 mm 1 mps 742 mmHg 95%
    20:00 -10°C° 0.1 mm 1 mps 741 mmHg 96%
    21:00 -10°C° 0.1 mm 1 mps 741 mmHg 96%
    22:00 -9°C° 0.1 mm 1 mps 741 mmHg 96%
    23:00 -10°C° 0.1 mm 1 mps 741 mmHg 96%

    24 November, Saturday

    Time Temperature Precipitation Wind Pressure Humidity
    00:00 -10°C° 0.1 mm 1 mps 741 mmHg 97%
    01:00 -10°C° 0.1 mm 1 mps 741 mmHg 97%
    02:00 -10°C° 0 mm 1 mps 741 mmHg 97%
    03:00 -10°C° 0 mm 1 mps 741 mmHg 97%
    04:00 -11°C° 0 mm 1 mps 741 mmHg 98%
    05:00 -11°C° 0 mm 1 mps 741 mmHg 98%
    06:00 -11°C° 0 mm 1 mps 740 mmHg 98%
    07:00 -11°C° 0 mm 1 mps 740 mmHg 98%
    08:00 -12°C° 0.1 mm 2 mps 739 mmHg 97%
    09:00 -12°C° 0.1 mm 2 mps 739 mmHg 96%
    10:00 -12°C° 0.1 mm 2 mps 738 mmHg 96%
    11:00 -12°C° 0.2 mm 3 mps 738 mmHg 95%
    12:00 -12°C° 0.2 mm 3 mps 737 mmHg 94%
    13:00 -10°C° 0.2 mm 3 mps 737 mmHg 93%
    14:00 -10°C° 0.3 mm 3 mps 736 mmHg 94%
    15:00 -10°C° 0.3 mm 3 mps 735 mmHg 94%
    16:00 -10°C° 0.3 mm 3 mps 735 mmHg 94%
    17:00 -9°C° 0.3 mm 3 mps 735 mmHg 94%
    18:00 -9°C° 0.3 mm 3 mps 734 mmHg 95%
    19:00 -8°C° 0.3 mm 2 mps 734 mmHg 95%
    20:00 -8°C° 0.3 mm 2 mps 734 mmHg 95%
    21:00 -8°C° 0.3 mm 2 mps 734 mmHg 95%
    22:00 -8°C° 0.3 mm 2 mps 734 mmHg 96%
    23:00 -8°C° 0.2 mm 2 mps 734 mmHg 96%

    25 November, Sunday

    Time Temperature Precipitation Wind Pressure Humidity
    00:00 -9°C° 0.2 mm 2 mps 734 mmHg 96%
    01:00 -9°C° 0.2 mm 2 mps 735 mmHg 96%
    02:00 -9°C° 0.2 mm 2 mps 735 mmHg 96%
    03:00 -10°C° 0.2 mm 2 mps 735 mmHg 96%
    04:00 -10°C° 0.2 mm 2 mps 736 mmHg 96%
    05:00 -12°C° 0.1 mm 2 mps 736 mmHg 95%
    06:00 -13°C° 0.1 mm 2 mps 736 mmHg 95%
    07:00 -13°C° 0.1 mm 2 mps 737 mmHg 95%
    08:00 -14°C° 0 mm 2 mps 737 mmHg 95%
    09:00 -14°C° 0 mm 2 mps 738 mmHg 95%
    10:00 -15°C° 0 mm 2 mps 739 mmHg 94%
    11:00 -15°C° 0.1 mm 2 mps 740 mmHg 93%
    12:00 -15°C° 0.1 mm 2 mps 740 mmHg 92%
    13:00 -15°C° 0.1 mm 2 mps 741 mmHg 91%
    14:00 -15°C° 0 mm 2 mps 742 mmHg 92%
    15:00 -16°C° 0 mm 2 mps 742 mmHg 93%
    16:00 -14°C° 0 mm 1 mps 743 mmHg 94%
    17:00 -16°C° 0 mm 1 mps 744 mmHg 94%
    18:00 -17°C° 0 mm 1 mps 744 mmHg 95%
    19:00 -18°C° 0 mm 1 mps 745 mmHg 96%
    20:00 -19°C° 0 mm 1 mps 745 mmHg 96%
    21:00 -19°C° 0 mm 1 mps 745 mmHg 96%
    22:00 -20°C° 0 mm 0 mps 746 mmHg 97%
    23:00 -20°C° 0 mm 0 mps 746 mmHg 97%

    26 November, Monday

    Time Temperature Precipitation Wind Pressure Humidity
    00:00 -20°C° 0 mm 0 mps 746 mmHg 97%
    01:00 -21°C° 0 mm 0 mps 746 mmHg 97%
    02:00 -21°C° 0 mm 0 mps 746 mmHg 97%
    03:00 -21°C° 0 mm 0 mps 746 mmHg 97%
    04:00 -21°C° 0 mm 0 mps 746 mmHg 97%
    05:00 -20°C° 0 mm 1 mps 746 mmHg 97%
    06:00 -20°C° 0 mm 1 mps 746 mmHg 97%
    07:00 -20°C° 0 mm 1 mps 746 mmHg 97%
    08:00 -20°C° 0 mm 1 mps 746 mmHg 97%
    09:00 -20°C° 0 mm 1 mps 746 mmHg 97%
    10:00 -20°C° 0 mm 1 mps 746 mmHg 97%
    11:00 -19°C° 0 mm 1 mps 746 mmHg 96%
    12:00 -18°C° 0 mm 1 mps 746 mmHg 96%
    13:00 -17°C° 0 mm 1 mps 745 mmHg 95%
    14:00 -20°C° 0 mm 2 mps 745 mmHg 95%
    15:00 -20°C° 0 mm 2 mps 745 mmHg 96%
    16:00 -20°C° 0 mm 2 mps 745 mmHg 97%
    17:00 -20°C° 0 mm 2 mps 745 mmHg 97%
    18:00 -20°C° 0 mm 2 mps 745 mmHg 97%
    19:00 -20°C° 0 mm 2 mps 745 mmHg 96%
    20:00 -20°C° 0 mm 2 mps 744 mmHg 97%
    21:00 -21°C° 0 mm 2 mps 744 mmHg 97%
    22:00 -21°C° 0 mm 2 mps 744 mmHg 97%
    23:00 -21°C° 0 mm 2 mps 744 mmHg 97%
    Show more